Overview Statistics Trail Chart Weather Telemetry Raw packets
 

This is the latest recevied weather packets stored in our database for station/object DG0LHZ-10. If no packets are shown the sender has not sent any weather packets the latest 10 day(s).

<< 10 11 12 13 14 15 16 >>
Time Temp. Humidity Pressure Rain* Wind** Luminosity Snow
1788101892 31.11° C 37% 1014.2 hPa - - - -
1788100992 31.11° C 38% 1014.2 hPa - - - -
1788100091 31.11° C 38% 1014.2 hPa - - - -
1788099191 31.11° C 39% 1014.2 hPa - - - -
1788098291 30.56° C 40% 1014.3 hPa - - - -
1788097391 30.56° C 41% 1014.3 hPa - - - -
1788096491 30° C 42% 1014.3 hPa - - - -
1788095591 28.89° C 43% 1014.2 hPa - - - -
1788094691 28.33° C 44% 1014.5 hPa - - - -
1788093791 27.78° C 43% 1014.5 hPa - - - -
1788092891 27.22° C 44% 1014.8 hPa - - - -
1788091991 26.11° C 45% 1014.7 hPa - - - -
1788091091 25.56° C 46% 1014.7 hPa - - - -
1788090191 25° C 46% 1015 hPa - - - -
1788089291 25.56° C 46% 1015 hPa - - - -
1788088391 25.56° C 45% 1014.8 hPa - - - -
1788087491 26.67° C 44% 1014.8 hPa - - - -
1788086590 26.67° C 44% 1014.4 hPa - - - -
1788085690 27.22° C 44% 1014.2 hPa - - - -
1788084790 27.22° C 44% 1014.1 hPa - - - -
1788083890 26.67° C 44% 1014.1 hPa - - - -
1788082990 26.67° C 46% 1014.2 hPa - - - -
1788082090 26.11° C 47% 1014.2 hPa - - - -
1788081190 25.56° C 48% 1014.1 hPa - - - -
1788080290 24.44° C 49% 1014 hPa - - - -

* Rain since midnight (hover to see other rain measurements)
** Current wind speed in m/s (hover to see current wind gust speed)